Regional Weather Roundup
Issued by NWS

Home | Current Version | Previous Version | Text Only | Print | Product List | Glossary Off
Versions: 1 2 3 4 5 6 7 8 9 10 11 12 13 14 15 16 17 18 19 20 21 22 23 24 25 26 27 28 29 30 31 32 33 34 35 36 37 38 39 40 41 42 43 44 45 46 47 48 49 50

000
ASUS45 KTFX 261304
RWRMT
MONTANA HOURLY WEATHER ROUNDUP
NATIONAL WEATHER SERVICE GREAT FALLS MT
604 AM MST MON JAN 26 2015

NOTE: "FAIR" INDICATES FEW OR NO CLOUDS BELOW 12000 FEET WITH NO
SIGNIFICANT WEATHER AND/OR OBSTRUCTIONS TO VISIBILITY.

* THESE STATIONS ARE NOT UNDER NWS QUALITY CONTROL. THEY DO NOT
   REPORT WEATHER SUCH AS PRECIPITATION OR FOG.

MTZ001>007-043-261400-
WEST OF THE DIVIDE
CITY           SKY/WX    TMP DP  RH WIND       PRES   REMARKS
KALISPELL      FOG       23  21  92 CALM      30.13F VSB M1/4
MISSOULA       PTCLDY    27  25  92 CALM      30.22S
BUTTE          CLEAR     23  21  92 CALM      30.25F
MULLAN PASS    MOCLDY    43  27  53 VRB7      30.17R
* ANACONDA     CLEAR     45  27  49 SE9G21     N/A
* ESSEX        N/A       26  25  96 E1         N/A
* LINCOLN      N/A       22  21  96 NE2        N/A
* LOOKOUT PASS N/A       37  31  79 S3         N/A
* POLSON       N/A       38  30  73 N/A        N/A
* RONAN APT    PTCLDY    30  30 100 N/A        N/A
* SEELEY LAKE  N/A       21  19  92 N3         N/A
* THOMP F APT  MOCLDY    33  31  92 NE3        N/A
$$

MTZ008-052>055-261400-
SOUTHWEST MONTANA
CITY           SKY/WX    TMP DP  RH WIND       PRES   REMARKS
BOZEMAN        CLEAR     28  25  89 SW7       30.24F WCI  21
DILLON         CLEAR     36  27  70 S21G28    30.28S WCI  25
* W YELLOWSTON CLEAR     28  27  96 N/A        N/A
* THREE FORKS  CLEAR     36  34  92 N/A        N/A
* BOULDER HILL N/A       36  19  50 SW14       N/A   WCI  27
* MONIDA PASS  N/A       30  30 100 E11        N/A   WCI  21
* RAYNOLDS PAS N/A       28  11  49 SE12G18    N/A   WCI  18
* WHITEHALL    N/A       33  24  70 SW5G11     N/A   WCI  28
* WISE RIVER   N/A       25  22  88 W2         N/A
$$

MTZ009>010-012-014-046-048-049-054-261400-
EAST SLOPES AND CENTRAL MONTANA
CITY           SKY/WX    TMP DP  RH WIND       PRES   REMARKS
CUT BANK       CLOUDY    48  27  44 W20       29.98R
GREAT FALLS    MOCLDY    54  27  35 SW15      30.03S
HELENA         CLEAR     34  27  76 CALM      30.18F
MALMSTROM AFB  MOCLDY    48  30  50 SW18      30.03F
* DEARBORN     N/A       52  27  38 S11G17     N/A
* EAST GLACIER N/A       44  22  42 VRB3G10    N/A
* MONARCH      N/A       50  22  33 S14G19     N/A
* PENDROY      N/A       48  29  48 SW23       N/A
* ROGERS PASS  N/A       45  23  42 SE12G19    N/A
* SWEET GRASS  N/A       52  27  38 SW19       N/A
$$

MTZ011-013-016-021-035-040-045-047-050-051-261400-
NORTH CENTRAL MONTANA
CITY           SKY/WX    TMP DP  RH WIND       PRES   REMARKS
HAVRE          CLOUDY    37  30  76 W6        29.97F WCI  32
LEWISTOWN      PTCLDY    45  30  56 SW22      30.05F
* N BAR RANCH  CLEAR     46  25  44 VRB5      30.06S
* CHESTER      N/A       35  29  79 E1         N/A
* DENTON       N/A       45  29  54 SW12       N/A
* GEYSER       N/A       57  26  30 SW24G34    N/A
* JUDITH GAP   N/A       49  28  44 W6G17      N/A
* LOMA         N/A       49  30  48 SW11G16    N/A
$$

MTZ017>020-022>027-061-062-261400-
NORTHEAST MONTANA
CITY           SKY/WX    TMP DP  RH WIND       PRES   REMARKS
GLASGOW        CLEAR     30  28  92 W6        29.96R WCI  24
GLENDIVE       CLEAR     34  28  79 SW7       29.98S WCI  28
JORDAN         CLOUDY    32  30  92 NW6       30.00R WCI  26
SIDNEY         CLEAR     32  28  85 CALM      29.96S
WOLF POINT     CLEAR     30  28  92 W6        29.97R WCI  24
* BEAVER HILL  N/A       35  30  82 W6G11      N/A   WCI  30
* CIRCLE       N/A       33  29  85 N/A        N/A
* LINDSAY DVD  N/A       40  31  70 W12        N/A   WCI  33
* NAVAJO       N/A       38  28  67 NW12       N/A   WCI  30
* SACO         N/A       30  29  96 W2         N/A
$$

MTZ028>042-056>058-261400-
SOUTHCENTRAL AND SOUTHEAST MONTANA
CITY           SKY/WX    TMP DP  RH WIND       PRES   REMARKS
BAKER          CLEAR     37  30  76 W14       29.97R WCI  28
BILLINGS       CLEAR     43  28  56 SW25      30.09S
LIVINGSTON     CLEAR     52  25  35 SW24G38   30.16R
MILES CITY     MOCLDY    41  30  65 CALM      30.01R
* LAUREL APT   CLEAR     41  25  53 SW10G17    N/A
* ROUNDUP APT  PTCLDY    48  27  44 N/A        N/A
* ALZADA       N/A       40  30  68 SW8        N/A   WCI  35
* HYSHAM       N/A       48  26  42 W5         N/A
* LAME DEER    N/A       48  28  46 W13G19     N/A
* REED POINT   N/A       40  28  62 W4         N/A
* ROSCOE HILL  N/A       54  14  20 S4         N/A
$$

REGIONAL REPORTS...DAKOTAS
CITY           SKY/WX    TMP DP  RH WIND       PRES   REMARKS
WILLISTON      CLEAR     36  30  79 SW8       29.92R WCI  30
DICKINSON      PTCLDY    36  30  79 W14       29.89S WCI  27
CROSBY         FAIR      36  32  85 W12       29.89R WCI  28
WATFORD CITY   CLEAR     34  32  92 W7        29.90R WCI  28
BISMARCK       PTCLDY    37  32  82 NW7       29.86R WCI  32
GRAND FORKS    PTCLDY    34  28  79 NW10      29.67R WCI  26
FARGO          CLEAR     32  28  85 W10       29.70R WCI  24
BUFFALO SD     CLEAR     43  30  60 W3        29.90R
RAPID CITY     CLEAR     45  27  49 W8        30.00R
$$

REGIONAL REPORTS...WYOMING/IDAHO/WASHINGTON
CITY           SKY/WX    TMP DP  RH WIND       PRES   REMARKS
GILLETTE       PTCLDY    41  28  60 W13       30.08F
SHERIDAN       PTCLDY    36  27  70 S7        30.09R WCI  30
CODY           PTCLDY    36  28  73 N6        30.18S WCI  31
YELLOWSTONE LA PTCLDY    12   9  88 CALM      30.46R
SALMON         CLOUDY    25  23  92 CALM      30.41S VSB M1/4
MULLAN PASS    MOCLDY    43  27  53 VRB7      30.17S
SAND POINT     FOG       34  34 100 CALM      30.14F VSB 1/2
SPOKANE        FOG       36  36 100 NE8       30.10F VSB M1/4 WCI  30

$$




USA.gov is the U.S. government's official web portal to all federal, state and local government web resources and services.